Cody, WY

12:52 PM MDT on September 21, 2017 (GMT -0600)
Yellowstone Regional

Weather History for KCOD - February, 2013

Change the Weather History Date:

Sunday, February 10, 2013

  Actual Average Record
Temperature  
Mean Temperature 16 °F -  
Max Temperature 26 °F 37 °F 65 °F (1951)
Min Temperature 6 °F 15 °F -28 °F (1939)
Degree Days  
Heating Degree Days 49    
Moisture  
Dew Point 15 °F    
Average Humidity 82    
Maximum Humidity 93    
Minimum Humidity 63    
Precipitation  
Precipitation 0.00 in - - ()
Sea Level Pressure  
Sea Level Pressure 29.93 in    
Wind  
Wind Speed 13 mph (NNE)    
Max Wind Speed 24 mph    
Max Gust Speed 34 mph    
Visibility 10 miles    
Events      
Averages and records for this station are not official NWS values.
T = Trace of Precipitation, MM = Missing Value Source: NWS Daily Summary

Daily Weather History Graph

Daily Weather History Graph

Search for Another Location

Airport or City:

Trip Planner

Search our weather history database for the weather conditions in past years. The results will help you decide how hot, cold, wet, or windy it might be!

Date:

Astronomy

Feb. 10, 2013 Rise Set
Actual Time 7:22 AM MST 5:38 PM MST
Civil Twilight 6:52 AM MST 6:08 PM MST
Nautical Twilight 6:18 AM MST 6:42 PM MST
Astronomical Twilight 5:44 AM MST 7:16 PM MST
Moon 7:11 AM MST (2/10) 6:37 PM MST (2/10)
Length of Visible Light 11h 16m
Length of Day
10h 15m
New Moon, 0% of the Moon is Illuminated
Feb 10
New Moon
Feb 17
First Quarter
Feb 25
Full
Mar 4
Last Quarter
Mar 11
New

Hourly Weather History & Observations

Time (MST) Temp. Windchill Dew Point Humidity Pressure Visibility Wind Dir Wind Speed Gust Speed Precip Events Conditions
12:15 AM 26.6 °F 18.2 °F 23.0 °F 86% 29.79 in 10.0 mi North 8.1 mph - N/A   Overcast
12:35 AM 26.6 °F 15.7 °F 23.0 °F 86% 29.79 in 10.0 mi North 12.7 mph - N/A   Overcast
12:55 AM 24.8 °F 13.4 °F 21.2 °F 86% 29.80 in 10.0 mi North 12.7 mph 17.3 mph N/A   Overcast
1:15 AM 26.6 °F 14.3 °F 23.0 °F 86% 29.80 in 5.0 mi North 16.1 mph 20.7 mph N/A   Overcast
1:35 AM 24.8 °F 10.3 °F 23.0 °F 93% 29.80 in 3.0 mi North 20.7 mph 29.9 mph N/A   Overcast
2:15 AM 24.8 °F 10.3 °F 21.2 °F 86% 29.81 in 10.0 mi North 20.7 mph 29.9 mph N/A   Mostly Cloudy
2:35 AM 24.8 °F 11.1 °F 21.2 °F 86% 29.82 in 10.0 mi North 18.4 mph 27.6 mph N/A   Overcast
2:55 AM 24.8 °F 11.5 °F 21.2 °F 86% 29.82 in 9.0 mi North 17.3 mph 24.2 mph N/A   Overcast
3:15 AM 24.8 °F 10.3 °F 21.2 °F 86% 29.82 in 10.0 mi North 20.7 mph 26.5 mph N/A   Overcast
3:35 AM 24.8 °F 10.3 °F 19.4 °F 80% 29.83 in 10.0 mi North 20.7 mph 27.6 mph N/A   Overcast
3:55 AM 24.8 °F 9.3 °F 19.4 °F 80% 29.83 in 10.0 mi North 24.2 mph 34.5 mph N/A   Overcast
4:15 AM 24.8 °F 10.0 °F 17.6 °F 74% 29.84 in 10.0 mi North 21.9 mph 32.2 mph N/A   Overcast
4:35 AM 23.0 °F 9.2 °F 19.4 °F 86% 29.85 in 6.0 mi North 17.3 mph 27.6 mph N/A   Overcast
4:55 AM 23.0 °F 10.1 °F 19.4 °F 86% 29.86 in 5.0 mi North 15.0 mph 24.2 mph N/A   Overcast
5:15 AM 23.0 °F 8.7 °F 17.6 °F 80% 29.87 in 5.0 mi North 18.4 mph 25.3 mph N/A   Overcast
5:35 AM 23.0 °F 9.6 °F 17.6 °F 80% 29.88 in 7.0 mi North 16.1 mph 26.5 mph N/A   Overcast
5:55 AM 23.0 °F 7.2 °F 17.6 °F 80% 29.88 in 10.0 mi North 23.0 mph 28.8 mph N/A   Mostly Cloudy
6:35 AM 23.0 °F 8.7 °F 17.6 °F 80% 29.90 in 10.0 mi North 18.4 mph 24.2 mph N/A   Overcast
6:55 AM 21.2 °F 7.3 °F 17.6 °F 86% 29.90 in 10.0 mi North 16.1 mph 20.7 mph N/A   Overcast
7:15 AM 21.2 °F 8.3 °F 17.6 °F 86% 29.91 in 10.0 mi North 13.8 mph 24.2 mph N/A   Overcast
7:35 AM 21.2 °F 6.4 °F 19.4 °F 93% 29.92 in 10.0 mi North 18.4 mph - N/A   Overcast
7:55 AM 21.2 °F 8.3 °F 17.6 °F 86% 29.92 in 10.0 mi North 13.8 mph - N/A   Overcast
8:15 AM 19.4 °F 6.6 °F 15.8 °F 86% 29.94 in 10.0 mi North 12.7 mph 19.6 mph N/A   Overcast
8:35 AM 19.4 °F 6.0 °F 15.8 °F 86% 29.94 in 10.0 mi North 13.8 mph 23.0 mph N/A   Overcast
8:55 AM 19.4 °F 4.5 °F 15.8 °F 86% 29.94 in 10.0 mi North 17.3 mph 24.2 mph N/A   Overcast
9:35 AM 19.4 °F 6.0 °F 15.8 °F 86% 29.96 in 8.0 mi North 13.8 mph 20.7 mph N/A   Overcast
9:55 AM 19.4 °F 7.2 °F 17.6 °F 93% 29.96 in 10.0 mi North 11.5 mph 20.7 mph N/A   Overcast
10:15 AM 19.4 °F 7.9 °F 17.6 °F 93% 29.96 in 10.0 mi North 10.4 mph - N/A   Overcast
10:35 AM 19.4 °F 8.6 °F 17.6 °F 93% 29.96 in 10.0 mi North 9.2 mph - N/A   Overcast
10:55 AM 21.2 °F 10.1 °F 17.6 °F 86% 29.96 in 8.0 mi North 10.4 mph - N/A   Overcast
11:15 AM 21.2 °F 8.3 °F 17.6 °F 86% 29.96 in 8.0 mi NNE 13.8 mph - N/A   Overcast
11:35 AM 23.0 °F 10.6 °F 17.6 °F 80% 29.96 in 10.0 mi North 13.8 mph - N/A   Overcast
11:55 AM 21.2 °F 8.9 °F 15.8 °F 80% 29.95 in 10.0 mi NNE 12.7 mph - N/A   Overcast
12:15 PM 23.0 °F 11.7 °F 15.8 °F 74% 29.94 in 10.0 mi NNE 11.5 mph - N/A   Overcast
12:35 PM 23.0 °F 11.7 °F 15.8 °F 74% 29.94 in 10.0 mi North 11.5 mph - N/A   Overcast
12:55 PM 23.0 °F 11.1 °F 17.6 °F 80% 29.93 in 10.0 mi North 12.7 mph - N/A   Overcast
1:15 PM 24.8 °F 15.3 °F 17.6 °F 74% 29.93 in 10.0 mi NNW 9.2 mph - N/A   Overcast
1:35 PM 24.8 °F 15.3 °F 15.8 °F 69% 29.94 in 10.0 mi NNE 9.2 mph - N/A   Overcast
1:55 PM 23.0 °F 11.1 °F 15.8 °F 74% 29.94 in 10.0 mi North 12.7 mph - N/A   Mostly Cloudy
2:15 PM 24.8 °F 14.6 °F 15.8 °F 69% 29.94 in 10.0 mi North 10.4 mph - N/A   Overcast
2:35 PM 23.0 °F 13.1 °F 14.0 °F 68% 29.94 in 10.0 mi North 9.2 mph - N/A   Mostly Cloudy
2:55 PM 24.8 °F 15.3 °F 14.0 °F 64% 29.94 in 10.0 mi NNE 9.2 mph - N/A   Mostly Cloudy
3:15 PM 23.0 °F 13.9 °F 12.2 °F 63% 29.95 in 10.0 mi NNE 8.1 mph - N/A   Mostly Cloudy
3:35 PM 23.0 °F 14.7 °F 12.2 °F 63% 29.95 in 10.0 mi North 6.9 mph - N/A   Scattered Clouds
3:55 PM 23.0 °F 13.9 °F 12.2 °F 63% 29.96 in 10.0 mi NE 8.1 mph - N/A   Clear
4:15 PM 23.0 °F 17.0 °F 12.2 °F 63% 29.95 in 10.0 mi ENE 4.6 mph - N/A   Clear
4:35 PM 23.0 °F 17.0 °F 12.2 °F 63% 29.96 in 10.0 mi NNE 4.6 mph - N/A   Partly Cloudy
5:15 PM 21.2 °F 13.6 °F 12.2 °F 68% 29.97 in 10.0 mi NE 5.8 mph - N/A   Scattered Clouds
5:55 PM 19.4 °F 9.5 °F 12.2 °F 74% 29.98 in 10.0 mi NNE 8.1 mph - N/A   Clear
6:15 PM 17.6 °F 7.3 °F 12.2 °F 79% 29.99 in 10.0 mi NNE 8.1 mph - N/A   Clear
6:35 PM 17.6 °F 8.2 °F 12.2 °F 79% 29.99 in 10.0 mi North 6.9 mph - N/A   Partly Cloudy
6:55 PM 15.8 °F 4.2 °F 12.2 °F 86% 30.00 in 10.0 mi North 9.2 mph - N/A   Scattered Clouds
7:15 PM 15.8 °F 5.1 °F 12.2 °F 86% 30.01 in 10.0 mi North 8.1 mph - N/A   Mostly Cloudy
7:35 PM 15.8 °F 6.1 °F 12.2 °F 86% 30.01 in 10.0 mi North 6.9 mph - N/A   Clear
7:55 PM 15.8 °F 6.1 °F 12.2 °F 86% 30.01 in 10.0 mi North 6.9 mph - N/A   Clear
8:15 PM 14.0 °F 8.2 °F 12.2 °F 93% 30.02 in 10.0 mi NNE 3.5 mph - N/A   Clear
8:35 PM 14.0 °F 8.2 °F 12.2 °F 93% 30.02 in 10.0 mi NE 3.5 mph - N/A   Partly Cloudy
8:55 PM 12.2 °F - 10.4 °F 92% 30.02 in 10.0 mi Calm Calm - N/A   Partly Cloudy
9:15 PM 12.2 °F - 8.6 °F 85% 30.03 in 10.0 mi Calm Calm - N/A   Scattered Clouds
9:35 PM 12.2 °F - 10.4 °F 92% 30.03 in 10.0 mi Calm Calm - N/A   Scattered Clouds
9:55 PM 12.2 °F 6.1 °F 8.6 °F 85% 30.03 in 10.0 mi SSE 3.5 mph - N/A   Mostly Cloudy
10:15 PM 10.4 °F -0.4 °F 8.6 °F 92% 30.03 in 10.0 mi SSE 6.9 mph - N/A   Partly Cloudy
10:35 PM 10.4 °F -0.4 °F 6.8 °F 85% 30.03 in 10.0 mi South 6.9 mph - N/A   Partly Cloudy
10:55 PM 8.6 °F -3.7 °F 6.8 °F 92% 30.03 in 10.0 mi South 8.1 mph - N/A   Partly Cloudy
11:15 PM 8.6 °F -4.7 °F 6.8 °F 92% 30.03 in 10.0 mi South 9.2 mph - N/A   Scattered Clouds
11:35 PM 6.8 °F -3.5 °F 5.0 °F 92% 30.02 in 10.0 mi South 5.8 mph - N/A   Partly Cloudy
11:55 PM 8.6 °F 0.1 °F 6.8 °F 92% 30.02 in 10.0 mi South 4.6 mph - N/A   Clear